060  
SXUS52 KTAE 180119  
OSOTAE  
OSOTAE  
NORTH FLORIDA/SOUTH ALABAMA/SOUTHWEST GEORGIA WEATHER ROUNDUP  
NATIONAL WEATHER SERVICE TALLAHASSEE FLORIDA  
900 PM EDT THU AUG 17 2017  
 
NOTE: "FAIR" INDICATES FEW OR NO CLOUDS BELOW 12,000 FEET WITH NO  
SIGNIFICANT WEATHER AND/OR OBSTRUCTIONS TO VISIBILITY.  
 
!FLZ017-115-028-034-025-180200   
..NORTH FLORIDA
 
 
 
CITY SKY/WX TMP DP RH WIND PRES REMARKS  
TALLAHASSEE MOCLDY 86 78 77 S8 30.01R HX 98  
APALACHICOLA CLOUDY 84 78 82 W6 30.02R HX 95  
PERRY CLOUDY N/A N/A N/A S3 30.03R  
CROSS CITY CLOUDY 83 78 83 W6 30.06S HX 93  
JACKSONVILLE CLOUDY 80 79 96 CALM 30.02R  

 
 
!FLZ112-006-005-002-011-180200   
..FLORIDA PANHANDLE
 
 
 
CITY SKY/WX TMP DP RH WIND PRES REMARKS  
MARIANNA CLEAR 87 77 72 CALM 30.01R HX 99  
BONIFAY NOT AVBL  
PANAMA CITY NW FAIR 83 76 79 W6 30.01R HX 91  
TYNDALL AFB CLEAR 85 78 77 W10 30.02R HX 97  
TYND DRONE APT FAIR 85 78 81 NW5 30.02R HX 96  
DE FUNIAK SPR FAIR 79 74 86 CALM 30.04R  
EGLIN AFB PTCLDY 85 76 74 SW6 30.01S HX 95  
DESTIN CLEAR 89 76 65 VRB5 30.02R HX 100  
HURLBURT PTCLDY 86 74 68 SW5 30.01R HX 94  
CRESTVIEW PTCLDY 81 77 88 CALM 30.04R  
PENSACOLA CLOUDY 89 74 60 W10 30.02R HX 98  

 
 
!ALZ063-066-180200   
..SOUTH ALABAMA
 
 
 
CITY SKY/WX TMP DP RH WIND PRES REMARKS  
DOTHAN CLEAR 85 75 72 NW7 30.05S HX 93  
OZARK CAIRNS CLEAR 83 75 78 W3 30.02R HX 90  
FT RUCKER HELI CLEAR 80 76 89 CALM 30.02S  
RUCKER HELI 3 FAIR 82 76 83 CALM 30.02S HX 90  
RUCKER HELI 2 FAIR 80 77 90 CALM 30.01S  
FLORALA APT NOT AVBL  
ANDALUSIA CLEAR 83 74 74 CALM 30.02S  
TROY CLEAR 81 79 94 W3 30.03R HX 90  
EUFALA FAIR 81 77 88 CALM 30.01R  
MOBILE PTCLDY 83 76 79 S6 30.02F HX 91  

 
 
!GAZ120>161-180200   
..SOUTHWEST AND SOUTH CENTRAL GEORGIA
 
 
 
CITY SKY/WX TMP DP RH WIND PRES REMARKS  
THOMASVILLE FAIR 84 77 79 CALM 30.03R HX 94  
BAINBRIDGE CLEAR 86 81 84 CALM 30.01R HX 102  
MOODY AFB CLOUDY 85 78 78 CALM 30.01R HX 96  
VALDOSTA MOCLDY 83 76 79 CALM 30.01R HX 91  
MOULTRIE CLEAR 84 77 79 CALM 30.03R HX 94  
BLAKELY CLEAR 82 77 83 CALM 30.02R HX 91  
ALBANY CLEAR 86 77 74 CALM 30.03R HX 97  
TIFTON FAIR 81 76 83 CALM 30.02R  
FITZGERALD FAIR 81 78 91 CALM 30.04R HX 90  
CORDELE FAIR 88 76 68 CALM 30.03R HX 98  
AMERICUS FAIR 81 72 74 CALM 30.04R  
HOMERVILLE FAIR 82 75 78 SE5 30.02S  

 
 
!GMZ750-755-770-775-180200   
..COASTAL AND BUOY OBS
 
 
 
STATION/POSITION TIME TEMP WIND PRES VSBY WAVE  
AIR SEA DIR/SP/G HT/PER  
(UTC) (F) (DEG/KT/KT) (MB) (MI) (FT/S)  
KEATON BEACH 0100 87 260/ 10/ 10 1016.4R  
CEDAR KEY 0100 86 300/ 6/ 8 1017.3R  
C TOWER 0100 85 1017.5R  
APALACHICOLA BUO 0050 85 87 280/ 6/ 6 1017.0R 1  
PANAMA CITY BUOY 0050 86 88 290/ 6/ 6 1017.0R 1/ 8  
MOBILE BUOY 0100 87 89 250/ 6/ 8 1017.1  
ORANGE BCH AL BU 0050 86 87 260/ 10/ 12 1016.5R 1/ 4  

 
 
 
CLICK HERE TO GO TO PREVIOUS BULLETINS.

The Nexlab FL Page
The Nexlab GA Page
The Nexlab AL Page Main Text Page